Weather History for K06D - February, 2013

Change the Weather History Date:

Tuesday, February 19, 2013

  Actual Average (KRUG) Record (KRUG)
Temperature  
Mean Temperature -12 °F -  
Max Temperature -7 °F 24 °F 44 °F (1981)
Min Temperature -18 °F 5 °F -27 °F (1966)
Degree Days  
Heating Degree Days 78    
Moisture  
Dew Point -21 °F    
Average Humidity 66    
Maximum Humidity 77    
Minimum Humidity 54    
Precipitation  
Precipitation 0.00 in - - ()
Sea Level Pressure  
Sea Level Pressure 30.35 in    
Wind  
Wind Speed 17 mph (NNW)    
Max Wind Speed 25 mph    
Max Gust Speed 25 mph    
Visibility 10 miles    
Events Snow    
Averages and records for this station are not official NWS values.
T = Trace of Precipitation, MM = Missing Value Source: NWS Daily Summary

Daily Weather History Graph

Daily Weather History Graph

Search for Another Location

Airport or City:

Trip Planner

Search our weather history database for the weather conditions in past years. The results will help you decide how hot, cold, wet, or windy it might be!

Date:

Astronomy

Feb. 19, 2013 Rise Set
Actual Time 7:38 AM CST 6:06 PM CST
Civil Twilight 7:06 AM CST 6:38 PM CST
Nautical Twilight 6:29 AM CST 7:15 PM CST
Astronomical Twilight 5:53 AM CST 7:51 PM CST
Moon 12:23 PM CST (2/19) 3:28 AM CST (2/19)
Length of Visible Light 11h 31m
Length of Day
10h 27m
Waxing Gibbous, 67% of the Moon is Illuminated
Feb 19
Waxing Gibbous
Feb 25
Full
Mar 4
Last Quarter
Mar 11
New
Mar 19
First Quarter

Hourly Weather History & Observations

Time (CST) Temp. Windchill Dew Point Humidity Pressure Visibility Wind Dir Wind Speed Gust Speed Precip Events Conditions
12:15 AM -11.2 °F -37.6 °F -18.4 °F 70% 30.23 in 10.0 mi NNW 21.9 mph - N/A   Clear
12:35 AM -13.0 °F -39.4 °F -20.2 °F 70% 30.24 in 10.0 mi NNW 20.7 mph - N/A   Clear
12:55 AM -13.0 °F -38.2 °F -20.2 °F 70% 30.25 in 10.0 mi NNW 18.4 mph - N/A   Clear
1:15 AM -13.0 °F -38.2 °F -20.2 °F 70% 30.26 in 10.0 mi NNW 18.4 mph - N/A   Clear
1:35 AM -13.0 °F -38.2 °F -20.2 °F 70% 30.26 in 10.0 mi NNW 18.4 mph - N/A   Clear
1:55 AM -14.8 °F -41.8 °F -22.0 °F 70% 30.27 in 10.0 mi NNW 20.7 mph - N/A   Clear
2:15 AM -13.0 °F -41.6 °F -20.2 °F 70% 30.27 in 7.0 mi NNW 25.3 mph - N/A   Clear
2:35 AM -13.0 °F -41.1 °F -20.2 °F 70% 30.28 in 6.0 mi NNW 24.2 mph - N/A   Haze
2:55 AM -13.0 °F -41.6 °F -20.2 °F 70% 30.28 in 7.0 mi NNW 25.3 mph - N/A   Clear
3:15 AM -13.0 °F -41.1 °F -20.2 °F 70% 30.29 in 5.0 mi NNW 24.2 mph - N/A Snow Light Snow
3:35 AM -14.8 °F -41.8 °F -20.2 °F 77% 30.30 in 10.0 mi NNW 20.7 mph - N/A   Clear
3:55 AM -14.8 °F -41.8 °F -22.0 °F 70% 30.29 in 10.0 mi NNW 20.7 mph - N/A   Clear
4:15 AM -14.8 °F -42.4 °F -22.0 °F 70% 30.29 in 10.0 mi NNW 21.9 mph - N/A   Clear
4:35 AM -16.6 °F -44.1 °F -22.0 °F 76% 30.29 in 10.0 mi NNW 20.7 mph - N/A   Clear
4:55 AM -16.6 °F -43.5 °F -22.0 °F 76% 30.30 in 10.0 mi NNW 19.6 mph - N/A   Clear
5:15 AM -16.6 °F -43.5 °F -22.0 °F 76% 30.29 in 10.0 mi NNW 19.6 mph - N/A   Clear
5:55 AM -16.6 °F -43.5 °F -22.0 °F 76% 30.31 in 10.0 mi NNW 19.6 mph - N/A   Clear
6:35 AM -16.6 °F -44.8 °F -22.0 °F 76% 30.32 in 10.0 mi NNW 21.9 mph - N/A   Clear
6:55 AM -16.6 °F -44.1 °F -22.0 °F 76% 30.33 in 10.0 mi NNW 20.7 mph 25.3 mph N/A   Clear
7:15 AM -16.6 °F -42.1 °F -22.0 °F 76% 30.33 in 10.0 mi North 17.3 mph - N/A   Clear
7:35 AM -16.6 °F -43.5 °F -23.8 °F 70% 30.33 in 10.0 mi NNW 19.6 mph - N/A   Clear
7:55 AM -18.4 °F -45.9 °F -23.8 °F 76% 30.34 in 10.0 mi NNW 19.6 mph - N/A   Clear
8:15 AM -18.4 °F -44.5 °F -25.6 °F 70% 30.34 in 10.0 mi NNW 17.3 mph - N/A   Clear
8:35 AM -16.6 °F -41.4 °F -23.8 °F 70% 30.35 in 10.0 mi NNW 16.1 mph - N/A   Clear
8:55 AM -16.6 °F -42.1 °F -22.0 °F 76% 30.36 in 10.0 mi NNW 17.3 mph - N/A   Clear
9:35 AM -14.8 °F -39.8 °F -22.0 °F 70% 30.37 in 10.0 mi NNW 17.3 mph - N/A   Clear
9:55 AM -14.8 °F -39.1 °F -22.0 °F 70% 30.38 in 10.0 mi NNW 16.1 mph - N/A   Clear
10:15 AM -13.0 °F -38.2 °F -22.0 °F 64% 30.38 in 10.0 mi NNW 18.4 mph - N/A   Clear
10:35 AM -13.0 °F -36.8 °F -22.0 °F 64% 30.39 in 10.0 mi NNW 16.1 mph - N/A   Clear
10:55 AM - - - N/A% 30.39 in 10.0 mi NNW 16.1 mph - N/A   Clear
11:15 AM -11.2 °F -32.9 °F -20.2 °F 64% 30.41 in 10.0 mi NNW 13.8 mph - N/A   Clear
11:35 AM -11.2 °F -33.7 °F -20.2 °F 64% 30.41 in 10.0 mi NNW 15.0 mph - N/A   Clear
11:55 AM -11.2 °F -34.4 °F -20.2 °F 64% 30.40 in 10.0 mi North 16.1 mph - N/A   Clear
12:15 PM -9.4 °F -31.4 °F -20.2 °F 59% 30.40 in 10.0 mi North 15.0 mph - N/A   Clear
12:35 PM -9.4 °F -29.8 °F -20.2 °F 59% 30.40 in 0.5 mi North 12.7 mph - N/A   Haze
12:55 PM -7.6 °F -25.7 °F -20.2 °F 54% 30.40 in 10.0 mi North 10.4 mph - N/A   Clear
1:15 PM -7.6 °F -27.5 °F -20.2 °F 54% 30.40 in 10.0 mi North 12.7 mph - N/A   Clear
1:35 PM -7.6 °F -26.6 °F -20.2 °F 54% 30.40 in 10.0 mi North 11.5 mph - N/A   Clear
1:55 PM -7.6 °F -27.5 °F -20.2 °F 54% 30.39 in 10.0 mi North 12.7 mph - N/A   Clear
2:15 PM -7.6 °F -29.1 °F -20.2 °F 54% 30.39 in 10.0 mi North 15.0 mph - N/A   Clear
2:35 PM -7.6 °F -29.1 °F -20.2 °F 54% 30.39 in 10.0 mi North 15.0 mph - N/A   Clear
2:55 PM -7.6 °F -28.3 °F -20.2 °F 54% 30.38 in 10.0 mi North 13.8 mph - N/A   Clear
3:15 PM -7.6 °F -26.6 °F -20.2 °F 54% 30.38 in 10.0 mi North 11.5 mph - N/A   Clear
3:35 PM -7.6 °F -26.6 °F -18.4 °F 59% 30.39 in 10.0 mi North 11.5 mph - N/A   Clear
3:55 PM -7.6 °F -27.5 °F -18.4 °F 59% 30.38 in 10.0 mi North 12.7 mph - N/A   Clear
4:15 PM -7.6 °F -26.6 °F -18.4 °F 59% 30.39 in 10.0 mi North 11.5 mph - N/A   Clear
4:35 PM -7.6 °F -27.5 °F -18.4 °F 59% 30.39 in 10.0 mi NNW 12.7 mph - N/A   Clear
4:55 PM -7.6 °F -25.7 °F -18.4 °F 59% 30.39 in 10.0 mi NNW 10.4 mph - N/A   Clear
5:15 PM -7.6 °F -27.5 °F -18.4 °F 59% 30.39 in 10.0 mi NNW 12.7 mph - N/A   Clear
6:35 PM -11.2 °F -30.1 °F -22.0 °F 59% 30.38 in 10.0 mi NNW 10.4 mph - N/A   Clear
6:55 PM -13.0 °F -33.4 °F -22.0 °F 64% 30.38 in 10.0 mi NNW 11.5 mph - N/A   Clear
7:15 PM -13.0 °F -32.4 °F -22.0 °F 64% 30.37 in 10.0 mi North 10.4 mph - N/A   Clear
7:35 PM -13.0 °F -32.4 °F -22.0 °F 64% 30.37 in 10.0 mi North 10.4 mph - N/A   Clear
7:55 PM -13.0 °F -31.3 °F -22.0 °F 64% 30.39 in 10.0 mi NNW 9.2 mph - N/A   Clear
8:15 PM -14.8 °F -32.2 °F -22.0 °F 70% 30.39 in 10.0 mi North 8.1 mph - N/A   Clear
8:35 PM -16.6 °F -36.8 °F -23.8 °F 70% 30.39 in 10.0 mi North 10.4 mph - N/A   Clear
8:55 PM -16.6 °F -35.7 °F -23.8 °F 70% 30.39 in 10.0 mi North 9.2 mph - N/A   Clear
9:15 PM -14.8 °F -33.5 °F -22.0 °F 70% 30.39 in 10.0 mi North 9.2 mph - N/A   Clear
9:55 PM -13.0 °F -30.0 °F -22.0 °F 64% 30.40 in 10.0 mi North 8.1 mph - N/A   Clear
10:15 PM -13.0 °F -28.6 °F -20.2 °F 70% 30.41 in 10.0 mi North 6.9 mph - N/A   Clear
10:35 PM -13.0 °F -27.0 °F -20.2 °F 70% 30.40 in 10.0 mi NNE 5.8 mph - N/A   Clear
10:55 PM -13.0 °F -25.1 °F -20.2 °F 70% 30.39 in 10.0 mi North 4.6 mph - N/A   Clear
11:15 PM -13.0 °F -27.0 °F -20.2 °F 70% 30.39 in 10.0 mi NNE 5.8 mph - N/A   Clear
11:35 PM -13.0 °F -25.1 °F -20.2 °F 70% 30.39 in 10.0 mi NNE 4.6 mph - N/A   Clear